Branson, MO

5:05 PM CST on November 23, 2017 (GMT -0600)
Branson

Weather History for KBBG - May, 2013

Change the Weather History Date:

Saturday, May 4, 2013

  Actual Average (KHRO) Record (KHRO)
Temperature  
Mean Temperature 38 °F -  
Max Temperature 44 °F 73 °F 92 °F (2014)
Min Temperature 32 °F 50 °F 30 °F (1907)
Degree Days  
Heating Degree Days 27    
Moisture  
Dew Point 34 °F    
Average Humidity 95    
Maximum Humidity 100    
Minimum Humidity 76    
Precipitation  
Precipitation 0.33 in - - ()
Sea Level Pressure  
Sea Level Pressure 29.90 in    
Wind  
Wind Speed 2 mph (NW)    
Max Wind Speed 14 mph    
Max Gust Speed -    
Visibility 6 miles    
Events Rain , Snow    
Averages and records for this station are not official NWS values.
T = Trace of Precipitation, MM = Missing Value Source: NWS Daily Summary

Daily Weather History Graph

Daily Weather History Graph

Search for Another Location

Airport or City:

Trip Planner

Search our weather history database for the weather conditions in past years. The results will help you decide how hot, cold, wet, or windy it might be!

Date:

Astronomy

May. 04, 2013 Rise Set
Actual Time 6:15 AM CDT 8:03 PM CDT
Civil Twilight 5:47 AM CDT 8:31 PM CDT
Nautical Twilight 5:14 AM CDT 9:05 PM CDT
Astronomical Twilight 4:38 AM CDT 9:41 PM CDT
Moon 3:05 AM CDT (5/4) 3:10 PM CDT (5/4)
Length of Visible Light 14h 43m
Length of Day
13h 48m
Waning Crescent, 27% of the Moon is Illuminated
May 4
Waning Crescent
May 9
New
May 17
First Quarter
May 24
Full
May 31
Last Quarter

Hourly Weather History & Observations

Time (CDT) Temp. Windchill Dew Point Humidity Pressure Visibility Wind Dir Wind Speed Gust Speed Precip Events Conditions
12:15 AM 32.0 °F - 32.0 °F 100% 29.91 in 2.5 mi Calm Calm - N/A Rain Light Rain
12:35 AM 32.0 °F - 32.0 °F 100% 29.90 in 3.0 mi Calm Calm - 0.04 in Rain Light Rain
12:55 AM 32.0 °F 27.5 °F 32.0 °F 100% 29.89 in 7.0 mi NNW 4.6 mph - 0.05 in Rain Light Rain
1:15 AM 32.0 °F 24.8 °F 32.0 °F 100% 29.89 in 3.0 mi NW 8.1 mph - 0.01 in Snow Light Snow
1:35 AM 32.0 °F 27.5 °F 32.0 °F 100% 29.88 in 5.0 mi WNW 4.6 mph - 0.04 in Snow Light Snow
1:55 AM 32.0 °F - 32.0 °F 100% 29.88 in 5.0 mi Calm Calm - 0.06 in Snow Light Snow
2:15 AM 32.0 °F - 32.0 °F 100% 29.87 in 4.0 mi Calm Calm - N/A Snow Light Snow
2:35 AM 32.0 °F - 32.0 °F 100% 29.87 in 5.0 mi Calm Calm - 0.01 in Snow Light Snow
2:55 AM 32.0 °F - 32.0 °F 100% 29.87 in 3.0 mi Calm Calm - 0.02 in Rain Light Rain
3:15 AM 32.0 °F - 32.0 °F 100% 29.86 in 5.0 mi Calm Calm - N/A Snow Light Snow
3:35 AM 32.0 °F - 32.0 °F 100% 29.86 in 3.0 mi Calm Calm - 0.03 in Snow Light Snow
3:55 AM 32.0 °F - 32.0 °F 100% 29.86 in 2.0 mi Calm Calm - 0.08 in Snow Light Snow
4:15 AM 32.0 °F - 32.0 °F 100% 29.86 in 2.5 mi Calm Calm - N/A Snow Light Snow
4:35 AM 32.0 °F - 32.0 °F 100% 29.85 in 6.0 mi Calm Calm - N/A   Overcast
4:55 AM 32.0 °F - 32.0 °F 100% 29.85 in 1.8 mi Calm Calm - 0.03 in Snow Light Snow
5:15 AM 32.0 °F - 32.0 °F 100% 29.85 in 2.0 mi Calm Calm - 0.01 in Snow Light Snow
5:35 AM 32.0 °F - 32.0 °F 100% 29.85 in 3.0 mi Calm Calm - 0.08 in Rain Light Rain
5:55 AM 32.0 °F 28.7 °F 32.0 °F 100% 29.85 in 10.0 mi SW 3.5 mph - 0.08 in   Overcast
6:15 AM 32.0 °F 27.5 °F 32.0 °F 100% 29.85 in 2.5 mi WSW 4.6 mph - N/A Snow Light Snow
6:35 AM 32.0 °F - 32.0 °F 100% 29.85 in 3.0 mi Calm Calm - 0.01 in Snow Light Snow
6:45 AM 32.0 °F - 32.0 °F 100% 29.85 in 4.0 mi Calm Calm - N/A Snow Light Snow
7:45 AM 33.8 °F - 33.8 °F 100% 29.86 in 3.0 mi Calm Calm - N/A Rain Light Rain
8:45 AM 35.6 °F - 33.8 °F 93% 29.85 in 3.0 mi Calm Calm - N/A Rain Light Rain
9:45 AM 35.6 °F - 35.6 °F 100% 29.86 in 5.0 mi Calm Calm - N/A Rain Light Rain
10:45 AM 37.4 °F - 35.6 °F 93% 29.87 in 8.0 mi Calm Calm - N/A   Overcast
11:56 AM 39.2 °F 35.0 °F 35.6 °F 87% 29.87 in 7.0 mi NNW 5.8 mph - N/A Rain Light Rain
12:47 PM 41.0 °F - 37.4 °F 87% 29.87 in 10.0 mi Calm Calm - N/A   Overcast
1:46 PM 39.2 °F 37.0 °F 35.6 °F 87% 29.89 in 7.0 mi NNE 3.5 mph - N/A Rain Light Rain
2:47 PM 41.0 °F 38.0 °F 35.6 °F 81% 29.89 in 7.0 mi NW 4.6 mph - N/A Rain Light Rain
3:55 PM 42.8 °F 37.5 °F 35.6 °F 76% 29.90 in 10.0 mi NNW 9.2 mph - N/A   Overcast
4:47 PM 42.8 °F 37.0 °F 37.4 °F 81% 29.91 in 10.0 mi NNW 10.4 mph - N/A   Overcast
5:47 PM 44.6 °F 38.1 °F 37.4 °F 76% 29.92 in 10.0 mi NNW 13.8 mph - N/A   Mostly Cloudy
6:57 PM 42.8 °F 37.5 °F 35.6 °F 76% 29.94 in 10.0 mi North 9.2 mph - N/A   Mostly Cloudy
7:55 PM 41.0 °F 39.0 °F 35.6 °F 81% 29.95 in 10.0 mi North 3.5 mph - N/A   Mostly Cloudy
8:46 PM 39.2 °F - 37.4 °F 93% 29.97 in 10.0 mi Calm Calm - N/A   Mostly Cloudy
9:15 PM 39.2 °F - 37.4 °F 93% 29.97 in 10.0 mi Calm Calm - N/A   Overcast
9:35 PM 37.4 °F - 35.6 °F 93% 29.97 in 10.0 mi Calm Calm - N/A   Mostly Cloudy
9:55 PM 37.4 °F - 35.6 °F 93% 29.98 in 10.0 mi Calm Calm - N/A   Scattered Clouds
10:15 PM 37.4 °F - 35.6 °F 93% 29.99 in 10.0 mi Calm Calm - N/A   Mostly Cloudy
10:35 PM 37.4 °F - 35.6 °F 93% 29.99 in 10.0 mi Calm Calm - N/A   Overcast
10:55 PM 37.4 °F - 35.6 °F 93% 29.99 in 10.0 mi Calm Calm - N/A   Scattered Clouds
11:15 PM 35.6 °F - 35.6 °F 100% 29.99 in 10.0 mi Calm Calm - N/A   Clear
11:35 PM 35.6 °F - 35.6 °F 100% 30.00 in 10.0 mi Calm Calm - N/A   Partly Cloudy
11:55 PM 35.6 °F - 35.6 °F 100% 30.00 in 10.0 mi Calm Calm - N/A   Mostly Cloudy